sat.trackr.live / text

‹ back to catalog

STARLINK-36839

NORAD 68125 · 2026-044AA

PAYLOAD ACTIVE UNKNOWN

§ Identity

Operator
Country
US
Launch date
2026-03-08
Launch site
AFWTR
Launch vehicle
Mass (kg)
RCS (m²)

Purposes: comms

External: N2YO · Heavens-Above · Gunter

§ Orbital elements

Epoch: 2026-05-25T03:20:48.619968Z

Period
93.91 min
Inclination
97.2854°
Eccentricity
0.0001102
Mean motion
15.33452270 rev/d
Perigee alt
464.8 km
Apogee alt
466.3 km
Semi-major
6,843.7 km
B*
6.0718e-4
RAAN
105.8398°
Arg perigee
76.9065°
Mean anomaly
283.2300°
Rev number
1,330

§ Raw data

STARLINK-368391 68125U 26044AA  26145.13945162  .00019582  00000+0  60718-3 0  99962 68125  97.2854 105.8398 0001102  76.9065 283.2300 15.33452270 13307

JSON: /api/v1/satellites/68125 · /tle

For live sub-satellite position, see the globe view (requires WebGL).

§ Visibility from observer

Set your observer location to see the next 7 days of passes ≥ 10°. The values pass through the URL so the page stays shareable.

No JS? Fill the form by hand. The geolocation button needs JavaScript.